SCP
0 0 0 0 0 0 0 0 0 0 0 0 0 0 0 0 0 0 0 0 0 0 0 1 1 0 1 1 1 1 1 1 1 1 1 1 1 1 1 1 1 1 1
0 0 0 0 0 0 0 0 0 0 0 0 0 0 0 0 0 0 0 0 0 0 0 1 1 1 0 0 1 1 1 1 1 1 1 1 1 1 1 1 1 1 1
0 0 0 0 0 0 0 0 0 0 0 0 0 0 0 0 0 0 0 0 0 0 0 1 1 1 1 0 1 1 1 1 1 1 1 1 1 1 1 1 1 1 1
0 0 0 0 0 0 0 0 0 0 0 0 0 0 0 0 0 0 0 0 0 0 0 1 1 1 1 1 1 1 1 1 1 1 1 1 1 1 1 1 1 1 1
0 0 0 0 0 0 0 0 0 0 0 0 0 0 0 0 0 0 0 0 0 0 0 0 0 1 1 1 1 1 1 1 1 1 1 1 1 1 1 1 1 1 1
0 0 0 0 0 0 0 0 0 0 0 0 0 0 0 0 0 0 0 0 0 0 0 0 0 0 0 1 1 1 1 1 1 1 1 1 1 2 1 1 1 1 1
0 0 0 0 0 0 0 0 0 0 0 0 0 0 0 0 0 0 0 0 0 0 0 0 0 0 0 0 1 1 1 1 1 1 1 1 1 1 2 1 1 1 1
0 0 0 0 0 0 0 0 0 0 0 0 0 0 0 0 0 0 0 0 0 0 0 0 0 0 0 0 0 1 1 1 1 1 1 1 1 1 2 2 1 1 1
0 0 0 0 0 0 0 0 0 0 0 0 0 0 0 0 0 0 0 0 0 0 0 0 0 0 0 0 0 0 1 1 1 1 1 1 1 1 1 2 2 1 1
0 0 0 0 0 0 0 0 0 0 0 0 0 0 0 0 0 0 0 0 0 0 0 0 0 0 0 0 0 0 0 1 1 1 1 1 1 1 1 2 2 1 1
0 0 0 0 0 0 0 0 0 0 0 0 0 0 0 0 0 0 0 0 0 0 0 0 0 0 0 0 0 0 0 0 1 1 1 1 1 1 1 1 1 1 1
0 0 0 0 0 0 0 0 0 0 0 0 0 0 0 0 0 0 0 0 0 0 0 0 0 0 0 0 0 0 0 0 0 1 1 1 1 1 1 1 1 1 1
0 0 0 0 0 0 0 0 0 0 0 0 0 0 0 0 0 0 0 0 0 0 0 0 0 0 0 0 0 0 0 0 0 1 1 1 0 0 1 1 1 1 1
0 0 0 0 0 0 0 0 0 0 0 0 0 0 0 0 0 0 0 0 0 0 0 0 0 0 0 0 0 0 0 0 1 1 1 1 0 0 0 1 1 1 1
0 0 0 0 0 0 0 0 0 0 0 0 0 0 0 0 0 0 0 0 0 0 0 0 0 0 0 0 0 0 0 0 1 1 1 1 0 0 0 1 1 1 1
0 0 0 0 0 0 0 0 0 0 0 0 0 0 0 0 0 0 0 0 0 0 0 0 0 0 0 0 0 0 0 1 1 1 1 1 1 0 0 1 1 1 1
0 0 0 0 0 0 0 0 0 0 0 0 0 0 0 0 0 0 0 0 0 0 0 0 0 0 0 0 0 0 1 1 1 1 1 1 1 0 0 0 1 1 1
1 1 1 0 0 0 0 0 0 0 0 0 0 0 0 0 0 0 0 0 0 0 0 0 0 0 0 0 0 0 1 1 1 1 1 1 1 0 0 0 0 0 0
1 1 1 1 0 0 0 0 0 0 0 0 0 0 0 0 0 0 0 0 0 0 0 0 0 0 0 0 0 0 0 1 1 1 1 1 0 0 0 0 0 0 0
1 1 1 1 0 0 0 0 0 0 0 0 0 0 0 0 0 0 0 0 0 0 0 0 0 0 0 0 0 0 0 1 1 1 1 1 0 0 0 0 0 0 0
1 1 1 1 0 0 0 0 0 0 0 0 0 0 0 0 0 0 0 0 0 0 0 0 0 0 0 0 0 0 0 1 1 1 1 1 0 0 0 0 0 0 0
1 1 1 1 0 0 0 0 0 0 0 0 0 0 0 0 0 0 0 0 0 0 0 0 0 0 0 0 0 0 0 1 1 1 1 1 0 0 0 0 0 0 0
1 1 1 1 0 0 0 0 0 0 0 0 0 0 0 0 0 0 0 0 0 0 0 0 0 0 0 0 0 0 0 0 1 1 1 0 0 0 0 0 0 0 0
1 1 1 1 0 0 0 0 0 0 0 0 0 0 0 0 0 0 0 0 0 0 0 0 0 0 0 0 0 0 0 1 1 1 1 0 0 0 0 0 0 0 0
1 1 1 1 0 0 0 0 0 0 0 0 0 0 0 0 0 0 0 0 0 0 0 0 0 0 0 0 0 0 0 1 1 0 0 0 0 0 0 0 0 0 0
0 0 1 0 0 0 0 0 0 0 0 0 0 0 0 0 0 0 0 0 0 0 0 0 0 0 0 0 0 0 0 0 0 0 0 0 0 0 0 0 0 0 0
Wind_Speed
2 2 2 3 3 2 3 3 3 4 4 4 3 4 3 3 3 3 3 7 8 8 8 8 8 8 8 9 8 8 8 8 8 8 7 7 7 7 6 6 6 6 6
2 2 3 3 3 2 2 2 3 3 3 3 3 3 3 3 3 3 3 4 7 8 8 8 8 8 7 8 8 8 8 8 8 8 8 7 7 6 7 6 6 6 6
2 2 2 2 2 2 3 3 3 3 3 3 3 3 2 3 3 3 3 3 4 6 8 7 7 7 7 7 8 8 7 7 7 7 7 7 7 7 6 6 6 6 7
3 2 2 2 2 2 2 3 3 3 3 3 3 3 3 2 3 3 3 3 3 3 5 7 7 7 6 6 7 7 7 7 6 6 7 7 7 7 7 7 7 6 6
3 3 2 2 2 2 2 2 3 2 2 3 3 3 3 3 3 3 3 3 3 3 3 5 7 7 6 7 7 7 7 7 6 6 6 6 7 7 7 7 7 6 6
3 3 3 3 3 3 3 3 3 3 2 2 3 3 3 3 3 3 3 3 3 3 3 4 4 5 7 7 7 7 7 6 6 6 6 6 7 7 7 7 7 6 6
3 3 3 3 3 2 2 2 2 3 3 2 2 3 3 3 4 3 2 2 3 3 3 3 3 3 3 7 7 7 8 6 6 6 6 6 6 6 7 7 7 6 6
2 2 3 2 2 2 3 3 2 2 2 2 2 2 2 4 3 3 3 2 3 2 3 3 3 3 2 2 5 7 7 6 6 5 5 6 6 6 6 6 6 6 6
2 2 2 2 2 2 2 1 2 2 1 2 2 2 2 1 2 3 3 3 3 3 2 2 3 3 3 2 2 5 6 6 5 5 5 5 5 5 5 5 4 5 5
1 2 2 2 2 2 2 1 2 1 2 1 1 2 1 2 1 1 3 3 3 3 3 2 3 3 2 2 2 4 5 5 5 4 4 4 5 5 5 5 5 4 4
1 1 2 2 2 1 1 1 1 1 1 1 1 1 1 2 1 2 1 3 3 2 2 2 2 2 3 2 2 3 4 4 5 4 4 4 4 4 4 4 5 4 4
0 1 1 1 1 1 1 1 1 2 1 1 1 1 1 1 1 1 1 1 2 2 2 2 2 2 2 2 3 4 4 4 4 4 4 4 3 3 4 4 4 4 4
1 2 2 2 1 1 2 1 2 1 1 1 1 1 1 1 1 2 2 1 1 2 2 2 2 2 2 2 3 5 4 4 4 3 3 3 3 3 3 4 4 4 4
3 3 3 2 2 2 2 2 1 1 1 1 1 1 1 0 1 1 2 2 0 2 2 3 2 2 2 2 3 5 3 4 4 3 2 2 2 3 3 3 4 4 4
2 3 3 3 2 2 2 2 1 1 1 1 1 1 1 1 1 1 1 2 3 1 2 2 2 2 2 2 3 2 2 4 4 4 3 2 2 2 3 3 3 3 3
3 3 3 3 3 2 3 2 2 1 2 1 1 1 1 1 1 1 1 1 2 3 2 2 2 3 3 3 4 2 2 5 5 4 3 3 3 3 2 2 3 3 3
3 4 4 3 3 3 3 3 3 2 2 2 1 2 2 1 1 1 1 1 1 2 2 2 2 2 2 3 3 3 2 2 3 4 4 4 3 3 2 2 2 3 2
4 4 4 4 4 4 4 4 4 3 3 3 2 2 2 2 1 1 1 2 2 2 3 3 2 1 2 2 3 3 3 2 2 4 4 4 3 3 2 3 3 2 1
4 4 4 4 4 4 4 5 4 4 4 4 4 4 3 3 2 2 2 2 2 1 2 2 2 1 1 2 2 2 3 2 3 3 4 4 3 3 3 3 3 2 2
4 4 4 4 4 4 4 4 4 4 4 4 4 4 4 4 5 4 3 3 2 1 1 2 2 1 1 1 1 1 2 2 2 2 3 3 3 3 3 3 3 3 3
4 4 4 4 3 3 4 4 4 4 4 4 3 4 4 5 6 5 3 3 3 2 2 2 2 1 1 1 1 1 2 2 2 1 2 2 1 1 2 3 3 3 3
3 3 4 4 4 4 5 7 5 4 4 4 4 4 4 5 6 6 6 5 5 4 3 3 2 3 3 3 2 2 1 1 2 1 1 2 0 1 2 1 3 3 3
3 4 4 4 5 6 7 7 7 5 4 4 4 4 3 3 3 2 4 4 4 6 6 5 4 5 4 4 3 2 2 2 3 2 1 2 1 2 2 2 3 2 2
3 4 4 5 4 5 7 7 6 4 3 4 4 4 4 3 3 3 3 2 3 4 5 4 5 5 5 5 5 4 4 2 2 1 1 2 1 2 2 2 3 2 3
3 4 3 4 4 5 7 7 5 3 3 3 3 3 4 4 6 5 3 3 3 3 4 5 5 4 4 4 3 2 1 1 2 2 1 1 1 1 1 1 2 3 3
4 3 3 3 4 5 6 6 5 3 3 2 2 3 5 5 6 5 4 4 4 4 2 2 2 3 2 2 3 3 3 3 2 2 2 2 1 1 1 1 1 2 2
Wind_Direction
43 32 30 32 34 38 45 47 49 44 41 47 56 61 51 43 40 35 17 30 42 49 53 57 56 53 52 52 51 51 49 44 44 44 45 46 46 47 44 44 41 39 42
67 55 45 38 31 34 43 50 53 52 43 47 54 53 47 39 38 36 27 23 33 42 49 52 52 51 52 51 49 47 47 43 43 45 45 43 43 41 41 43 42 42 41
77 72 62 45 26 32 47 55 50 51 47 41 41 41 47 43 39 35 33 27 20 31 42 47 49 52 51 51 47 43 42 41 40 43 46 44 43 41 39 41 42 42 40
77 79 72 48 33 42 50 57 50 51 43 37 30 24 33 39 36 35 39 35 29 22 28 38 41 47 50 49 45 40 37 35 37 42 47 46 45 44 40 38 39 41 40
78 86 80 54 48 52 46 56 51 58 52 38 40 33 27 29 25 38 39 33 31 25 18 25 29 35 41 40 38 33 30 32 38 39 45 49 44 42 40 39 38 40 39
80 87 81 66 62 65 52 53 63 53 56 45 54 42 24 23 33 39 34 27 24 28 28 25 19 17 27 30 29 25 24 26 36 41 44 43 41 39 37 37 37 41 44
88 90 81 74 67 74 70 69 71 63 44 22 57 30 14 29 38 32 28 30 24 19 28 27 21 15 9 18 19 18 17 24 31 37 39 37 37 35 34 34 34 38 44
99 102 102 95 86 82 70 58 63 74 39 27 76 71 13 1 8 20 20 31 15 12 23 23 21 16 11 6 6 14 13 21 28 32 35 35 34 32 29 30 31 35 38
96 100 114 109 103 100 100 80 79 97 96 25 44 119 125 226 325 348 9 18 11 15 7 7 15 5 3 359 345 2 10 14 19 25 29 29 27 25 24 22 23 25 27
108 114 118 115 112 104 107 96 89 94 111 77 25 41 100 156 138 338 342 355 3 12 359 2 359 352 351 339 341 356 358 0 3 12 19 21 19 15 13 16 17 17 18
112 125 131 127 130 126 127 104 90 89 100 120 115 91 66 54 87 137 301 329 347 342 345 342 338 337 338 332 317 325 343 348 350 353 1 7 8 7 3 4 9 12 18
178 168 147 146 150 143 148 146 130 120 105 104 104 108 130 134 150 147 190 274 307 309 328 331 334 329 331 336 330 340 337 340 343 346 348 350 353 1 0 357 357 1 6
208 213 181 173 171 174 162 140 136 139 137 133 139 138 142 155 153 154 155 213 285 302 322 325 321 327 332 338 331 339 335 337 335 332 340 347 350 348 352 350 349 350 351
209 202 188 182 188 174 159 145 136 163 140 155 159 148 146 186 152 165 163 153 34 320 325 303 315 314 317 322 327 335 327 336 336 329 333 337 332 334 336 333 331 336 340
203 189 187 188 189 179 168 154 157 183 159 174 184 176 175 227 187 198 169 163 159 207 287 292 302 312 318 316 327 325 311 330 336 336 335 334 329 321 321 328 329 331 336
204 184 188 190 188 186 178 164 170 183 161 190 182 176 202 224 208 199 186 169 165 173 231 271 270 297 316 322 332 325 313 334 335 330 331 327 321 312 312 323 328 328 319
198 195 196 192 192 195 188 179 192 180 183 207 204 193 223 215 206 204 178 170 183 171 212 272 274 295 308 313 320 321 315 315 318 324 329 325 316 312 321 324 320 319 316
202 203 198 197 203 203 194 193 203 196 195 207 217 209 227 212 212 216 194 203 212 200 194 243 277 297 288 292 305 313 319 317 299 315 324 321 319 322 327 333 334 330 324
203 205 198 205 211 209 204 206 204 204 206 212 211 211 221 201 220 225 211 218 228 218 195 207 259 275 285 300 316 316 318 311 307 310 316 309 305 309 312 320 328 326 326
203 208 210 213 214 211 207 206 204 210 215 220 218 219 220 207 215 216 218 221 213 204 196 207 242 267 274 285 292 300 314 314 303 320 322 319 314 309 311 311 314 307 300
212 212 211 217 219 213 208 199 203 210 212 223 232 234 230 222 219 216 216 209 196 198 206 216 233 254 262 256 250 252 276 301 292 294 312 312 319 317 310 304 298 292 291
211 207 213 216 219 227 224 211 204 207 208 213 230 242 244 236 235 231 234 224 205 198 207 211 225 230 244 238 242 240 251 314 298 299 301 291 296 287 288 278 294 285 281
214 216 220 219 226 235 233 224 215 204 210 212 218 228 241 235 230 227 239 240 238 237 221 212 224 231 233 227 218 233 226 221 247 261 209 272 282 277 286 297 297 285 285
221 225 229 227 231 240 238 234 221 198 202 216 218 217 218 224 224 216 208 216 238 250 243 229 226 233 232 225 209 212 221 239 263 273 189 245 278 274 304 302 312 306 306
229 229 229 228 233 247 244 234 201 190 206 223 222 219 213 219 233 223 199 213 248 268 266 248 249 255 259 251 219 171 186 206 262 263 210 208 245 271 288 288 305 312 307
229 229 236 234 234 246 253 233 205 190 201 221 230 229 228 229 233 217 199 201 232 254 250 269 280 282 272 260 227 204 200 204 227 251 215 192 218 232 294 291 305 317 307